EW5586 Weather Reports


time (UTC)temp
C
wind
direction
speed
KPH
gust
KPH
rain 1hr
cm
rain 24hr
cm
rain mn
cm
humidity
%
barometer
mb
20260503225428 11 239 14.5 32.2 0.00 0.00 0.00 46 1007.3
20260503224430 10 230 19.3 32.2 0.00 0.00 0.00 55 1007.3
20260503222931 9 221 20.9 29.0 0.00 0.00 0.00 65 1007.4
20260503222424 9 225 20.9 30.6 0.00 0.00 0.00 67 1007.5
20260503221924 9 0 19.3 30.6 0.00 0.00 0.00 69 1007.6
20260503220924 9 199 20.9 27.4 0.00 0.00 0.00 67 1007.6
20260503220424 9 203 22.5 29.0 0.00 0.00 0.00 65 1007.6
20260503215924 9 204 24.1 33.8 0.00 0.00 0.00 66 1007.7
20260503215424 9 207 24.1 33.8 0.00 0.00 0.00 65 1007.7
20260503214924 9 202 22.5 32.2 0.00 0.00 0.00 67 1007.7
20260503214426 9 190 22.5 32.2 0.00 0.00 0.00 68 1007.7
20260503213922 9 0 22.5 32.2 0.00 0.00 0.00 67 1007.7
20260503212924 9 194 24.1 32.2 0.00 0.00 0.00 68 1007.8
20260503212422 9 192 24.1 30.6 0.00 0.00 0.00 66 1007.8
20260503211922 9 211 25.7 32.2 0.00 0.00 0.00 67 1007.8
20260503211423 9 217 27.4 33.8 0.00 0.00 0.00 65 1007.8
20260503210923 9 0 24.1 33.8 0.00 0.00 0.00 65 1007.8
20260503210422 9 219 22.5 32.2 0.00 0.00 0.00 66 1007.9
20260503205923 9 196 22.5 29.0 0.00 0.00 0.00 66 1008.0
20260503204921 9 222 24.1 33.8 0.00 0.00 0.00 66 1008.1
20260503204415 9 198 22.5 33.8 0.00 0.00 0.00 65 1008.2
20260503203402 9 0 22.5 32.2 0.00 0.00 0.00 65 1008.2
20260503202856 9 204 24.1 35.4 0.00 0.00 0.00 64 1008.3
20260503202354 9 191 24.1 35.4 0.00 0.00 0.00 63 1008.3
20260503201852 9 176 24.1 32.2 0.00 0.00 0.00 67 1008.4
20260503201351 9 197 24.1 32.2 0.00 0.00 0.00 64 1008.4
20260503200853 9 0 24.1 30.6 0.00 0.00 0.00 63 1008.4
20260503200351 9 181 27.4 37.0 0.00 0.00 0.00 63 1008.4
20260503195850 9 209 29.0 38.6 0.00 0.00 0.00 61 1008.5
20260503195351 9 234 27.4 38.6 0.00 0.00 0.00 60 1008.5
20260503194850 9 187 25.7 35.4 0.00 0.00 0.00 60 1008.6
20260503193849 9 196 27.4 38.6 0.00 0.00 0.00 61 1008.9
20260503193350 9 178 29.0 38.6 0.00 0.00 0.00 61 1008.9
20260503192850 9 202 30.6 40.2 0.00 0.00 0.00 59 1008.9
20260503191849 9 197 30.6 40.2 0.00 0.00 0.00 61 1009.1
20260503191342 9 175 29.0 38.6 0.00 0.00 0.00 61 1009.1
20260503190837 9 203 29.0 40.2 0.00 0.00 0.00 58 1009.0
20260503190329 9 205 30.6 40.2 0.00 0.00 0.00 61 1009.1
20260503185823 8 0 29.0 37.0 0.00 0.00 0.00 61 1009.1
20260503185318 9 209 25.7 37.0 0.00 0.00 0.00 57 1009.1
20260503184811 9 0 24.1 37.0 0.00 0.00 0.00 59 1009.1
20260503184306 9 200 20.9 32.2 0.00 0.00 0.00 57 1009.1
20260503183759 9 0 19.3 29.0 0.00 0.00 0.00 62 1009.1
20260503183253 9 0 19.3 35.4 0.00 0.00 0.00 64 1009.2
20260503182747 8 184 22.5 35.4 0.00 0.00 0.00 65 1009.3
20260503182241 8 208 22.5 32.2 0.00 0.00 0.00 64 1009.3
20260503181735 8 219 24.1 33.8 0.00 0.00 0.00 63 1009.4
20260503181229 9 190 25.7 37.0 0.00 0.00 0.00 56 1009.3
20260503180723 9 213 25.7 37.0 0.00 0.00 0.00 55 1009.3
20260503180224 9 220 20.9 33.8 0.00 0.00 0.00 62 1009.3
20260503175724 9 196 19.3 30.6 0.00 0.00 0.00 62 1009.4
20260503175227 10 173 19.3 32.2 0.00 0.00 0.00 60 1009.4
20260503174224 9 192 22.5 33.8 0.00 0.00 0.00 62 1009.7
20260503173721 9 0 22.5 33.8 0.00 0.00 0.00 55 1009.5
20260503173222 9 208 24.1 38.6 0.00 0.00 0.00 56 1009.7
20260503172720 8 199 24.1 38.6 0.00 0.00 0.00 56 1009.7
20260503172221 8 213 24.1 40.2 0.00 0.00 0.00 60 1009.7
20260503171720 9 193 20.9 40.2 0.00 0.00 0.00 60 1009.7
20260503171220 9 205 20.9 33.8 0.00 0.00 0.00 63 1009.7
20260503170719 9 233 22.5 33.8 0.00 0.00 0.00 64 1009.8
20260503170218 9 169 22.5 33.8 0.00 0.00 0.00 61 1009.9
20260503160144 11 217 8.0 19.3 0.00 0.00 0.00 42 1010.7
20260503150546 -17 0.0 0.0 0.00 0.00 0.00 1011.4
20260503131151 -17 0.0 0.0 0.00 0.00 0.00 1012.1
20260503130644 -17 0.0 0.0 0.00 0.00 0.00 1012.1
20260503110129 -17 0.0 0.0 0.00 0.00 0.00 1011.7
20260503100225 -17 0.0 0.0 0.00 0.00 0.00 1011.5
20260503081315 3 279 0.0 0.0 0.00 0.00 0.00 85 1011.9
20260503080815 3 279 0.0 0.0 0.00 0.00 0.00 85 1011.9
20260503080315 3 279 0.0 0.0 0.00 0.00 0.00 85 1011.9
20260503072312 3 279 0.0 0.0 0.00 0.00 0.00 85 1011.8
20260503071811 3 279 0.0 0.0 0.00 0.00 0.00 85 1011.9
20260503071311 3 279 0.0 0.0 0.00 0.00 0.00 85 1011.8
20260503070813 4 279 0.0 0.0 0.00 0.00 0.00 85 1011.8
20260503070308 4 279 0.0 0.0 0.00 0.00 0.00 85 1011.8
20260503060256 4 279 0.0 0.0 0.00 0.00 0.00 85 1012.0
20260503054251 4 279 0.0 0.0 0.00 0.00 0.00 85 1012.0
20260503053743 4 279 0.0 0.0 0.00 0.00 0.00 85 1012.0
20260503053236 4 279 0.0 0.0 0.00 0.00 0.00 85 1012.0
20260503052730 4 279 0.0 0.0 0.00 0.00 0.00 85 1012.1
20260503052224 4 279 0.0 0.0 0.00 0.00 0.00 85 1012.1
20260503051718 4 279 0.0 0.0 0.00 0.00 0.00 84 1012.2
20260503051213 5 279 0.0 0.0 0.00 0.00 0.00 84 1012.2
20260503050706 5 279 0.0 0.0 0.00 0.00 0.00 84 1012.2
20260503050201 5 279 0.0 0.0 0.00 0.00 0.00 84 1012.2
20260503044642 5 279 0.0 0.0 0.00 0.00 0.00 83 1012.3
20260503044137 5 275 0.0 0.0 0.00 0.00 0.00 83 1012.3
20260503043630 5 275 0.0 0.0 0.00 0.00 0.00 83 1012.4
20260503042619 5 251 0.0 1.6 0.00 0.00 0.00 83 1012.3
20260503042112 5 251 0.0 1.6 0.00 0.00 0.00 83 1012.4
20260503041606 5 251 0.0 0.0 0.00 0.00 0.00 82 1012.4
20260503041100 5 251 0.0 0.0 0.00 0.00 0.00 82 1012.4
20260503034530 5 252 0.0 11.3 0.00 0.00 0.00 82 1012.5
20260503033518 5 219 0.0 3.2 0.00 0.00 0.00 82 1012.5
20260503033013 5 219 0.0 0.0 0.00 0.00 0.00 82 1012.6
20260503032506 6 219 1.6 6.4 0.00 0.00 0.00 82 1012.6
20260503031455 6 219 0.0 1.6 0.00 0.00 0.00 82 1012.6
20260503025937 6 219 3.2 6.4 0.00 0.00 0.00 83 1012.8
20260503024419 6 238 4.8 9.7 0.00 0.00 0.00 85 1012.8
20260503023912 6 230 6.4 12.9 0.00 0.00 0.00 86 1012.9
20260503023406 6 223 9.7 14.5 0.00 0.00 0.00 86 1012.9
20260503022900 6 193 11.3 14.5 0.00 0.00 0.00 86 1012.9
20260503022354 6 205 11.3 16.1 0.00 0.00 0.00 86 1012.9
20260503021342 6 187 11.3 16.1 0.00 0.00 0.00 86 1013.0
20260503020836 6 198 11.3 14.5 0.00 0.00 0.00 86 1013.1
20260503020330 6 215 11.3 14.5 0.00 0.00 0.00 86 1013.1
20260503015824 6 0 11.3 14.5 0.00 0.00 0.00 86 1013.1
20260503014814 6 195 11.3 16.1 0.00 0.00 0.00 86 1013.2
20260503014306 6 188 11.3 16.1 0.00 0.00 0.00 85 1013.2
20260503013805 6 196 11.3 17.7 0.00 0.00 0.00 85 1013.2
20260503013255 6 200 12.9 17.7 0.00 0.00 0.00 85 1013.2
20260503012242 6 192 12.9 20.9 0.00 0.00 0.00 84 1013.2
20260503011736 6 0 14.5 20.9 0.00 0.00 0.00 84 1013.1
20260503010725 6 211 16.1 20.9 0.00 0.00 0.00 83 1013.1
20260503010218 6 201 16.1 22.5 0.00 0.00 0.00 84 1013.1
20260503005712 6 219 16.1 22.5 0.00 0.00 0.00 83 1013.0
20260503005207 6 203 14.5 20.9 0.00 0.00 0.00 83 1013.0
20260503004700 6 186 14.5 19.3 0.00 0.00 0.00 83 1012.9
20260503003648 6 196 12.9 16.1 0.00 0.00 0.00 83 1012.9
20260503002640 6 0 9.7 16.1 0.00 0.00 0.00 84 1012.8
20260503002141 6 204 9.7 16.1 0.00 0.00 0.00 83 1012.8
20260503001640 6 237 11.3 19.3 0.00 0.00 0.00 82 1012.7
20260503001140 6 172 14.5 19.3 0.00 0.00 0.00 83 1012.7
20260503000642 6 0 14.5 19.3 0.00 0.00 0.00 84 1012.7
20260503000140 6 0 14.5 20.9 0.00 0.00 0.00 84 1012.7
20260502235640 6 217 12.9 20.9 0.00 0.00 0.00 84 1012.7
20260502234640 6 212 12.9 16.1 0.00 0.00 0.00 85 1012.8
20260502234141 6 0 12.9 17.7 0.00 0.00 0.00 84 1012.7
20260502233140 6 214 12.9 19.3 0.00 0.00 0.00 84 1012.7
20260502232641 6 200 12.9 17.7 0.00 0.00 0.00 84 1012.7
20260502232140 6 211 12.9 17.7 0.00 0.00 0.00 83 1012.7
20260502231640 6 0 12.9 17.7 0.00 0.00 0.00 83 1012.7
20260502231141 6 213 9.7 17.7 0.00 0.00 0.00 81 1012.7
20260502230640 6 205 6.4 14.5 0.00 0.00 0.00 79 1012.7
20260502230140 6 217 8.0 14.5 0.00 0.00 0.00 78 1012.7